DW9584 Weather Reports


time (UTC)temp
C
wind
direction
speed
KPH
gust
KPH
rain 1hr
cm
rain 24hr
cm
rain mn
cm
humidity
%
barometer
mb
20260510191524 22 217 0.0 4.8 0.00 0.00 0.00 66 1013.2
20260510190021 22 248 0.0 6.4 0.00 0.00 0.00 58 1013.3
20260510184520 23 316 1.6 8.0 0.00 0.00 0.00 53 1013.1
20260510183037 24 312 1.6 9.7 0.00 0.00 0.00 52 1013.1
20260510181504 24 341 0.0 11.3 0.00 0.00 0.00 50 1013.0
20260510180006 24 344 1.6 9.7 0.00 0.00 0.00 52 1013.0
20260510174504 25 282 4.8 11.3 0.00 0.00 0.00 48 1013.0
20260510173007 25 192 0.0 6.4 0.00 0.00 0.00 51 1013.1
20260510171506 24 214 3.2 8.0 0.00 0.00 0.00 52 1013.0
20260510170005 25 191 1.6 8.0 0.00 0.00 0.00 49 1013.0
20260510164508 24 218 0.0 3.2 0.00 0.00 0.00 53 1013.0
20260510163011 23 217 0.0 6.4 0.00 0.00 0.00 52 1013.2
20260510161507 23 200 1.6 4.8 0.00 0.00 0.00 58 1013.2
20260510160007 23 209 0.0 4.8 0.00 0.00 0.00 56 1013.1
20260510154510 23 243 0.0 6.4 0.00 0.00 0.00 55 1013.1
20260510153021 22 203 0.0 4.8 0.00 0.00 0.00 60 1013.2
20260510151510 21 283 0.0 8.0 0.00 0.00 0.00 60 1013.2
20260510150010 21 240 0.0 6.4 0.00 0.00 0.00 65 1013.1
20260510144512 20 212 1.6 8.0 0.00 0.00 0.00 67 1013.4
20260510143013 19 204 1.6 6.4 0.00 0.00 0.00 70 1013.5
20260510141515 17 299 0.0 3.2 0.00 0.00 0.00 77 1013.4
20260510140014 17 118 0.0 4.8 0.00 0.00 0.00 80 1013.5
20260510134516 16 192 1.6 3.2 0.00 0.00 0.00 81 1013.3
20260510133015 15 123 0.0 3.2 0.00 0.00 0.00 83 1013.3
20260510131515 15 130 0.0 4.8 0.00 0.00 0.00 85 1013.4
20260510130027 14 231 0.0 3.2 0.00 0.00 0.00 88 1013.4
20260510124517 13 352 0.0 3.2 0.00 0.00 0.00 90 1013.3
20260510123017 13 352 0.0 3.2 0.00 0.00 0.00 91 1013.3
20260510121515 12 352 0.0 3.2 0.00 0.00 0.00 94 1013.1
20260510120019 12 352 0.0 3.2 0.00 0.00 0.00 95 1013.0
20260510114517 11 352 0.0 3.2 0.00 0.00 0.00 95 1012.9
20260510113028 11 352 0.0 0.0 0.00 0.00 0.00 95 1012.7
20260510111530 11 352 0.0 0.0 0.00 0.00 0.00 95 1012.6
20260510110018 11 352 0.0 0.0 0.00 0.00 0.00 95 1012.3
20260510104527 10 352 0.0 3.2 0.00 0.00 0.00 95 1012.1
20260510103024 10 352 0.0 1.6 0.00 0.00 0.00 95 1011.9
20260510101522 10 352 0.0 3.2 0.00 0.00 0.00 95 1012.0
20260510100021 10 352 0.0 0.0 0.00 0.00 0.00 95 1011.9
20260510094524 10 352 0.0 3.2 0.00 0.00 0.00 95 1011.7
20260510093023 10 300 0.0 3.2 0.00 0.00 0.00 95 1011.8
20260510091527 9 249 0.0 4.8 0.00 0.00 0.00 95 1011.5
20260510090008 9 200 0.0 3.2 0.00 0.00 0.00 95 1011.6
20260510084508 8 229 0.0 3.2 0.00 0.00 0.00 95 1011.7
20260510083004 8 1 0.0 0.0 0.00 0.00 0.00 95 1011.2
20260510081533 8 1 0.0 0.0 0.00 0.00 0.00 95 1011.1
20260510080024 8 1 0.0 0.0 0.00 0.00 0.00 95 1011.2
20260510074519 8 1 0.0 0.0 0.00 0.00 0.00 95 1011.1
20260510073025 8 1 0.0 0.0 0.00 0.00 0.00 95 1011.0
20260510071516 8 1 0.0 0.0 0.00 0.00 0.00 95 1010.8
20260510070021 8 1 0.0 0.0 0.00 0.00 0.00 95 1010.4
20260510064536 8 1 0.0 0.0 0.00 0.00 0.00 94 1010.6
20260510063038 8 1 0.0 0.0 0.00 0.00 0.00 94 1010.7
20260510061507 8 1 0.0 0.0 0.00 0.00 0.00 94 1010.8
20260510060006 9 1 0.0 0.0 0.00 0.00 0.00 94 1010.7
20260510054524 9 1 0.0 0.0 0.00 0.00 0.00 94 1011.0
20260510053019 9 1 0.0 0.0 0.00 0.00 0.00 94 1011.0
20260510051518 9 1 0.0 0.0 0.00 0.00 0.00 94 1011.2
20260510050014 9 1 0.0 0.0 0.00 0.00 0.00 94 1011.3
20260510044511 10 1 0.0 0.0 0.00 0.00 0.00 94 1011.3
20260510043012 10 1 0.0 0.0 0.00 0.00 0.00 94 1011.3
20260510041506 10 1 0.0 0.0 0.00 0.00 0.00 94 1011.4
20260510040027 10 1 0.0 0.0 0.00 0.00 0.00 94 1011.5
20260510034525 10 1 0.0 0.0 0.00 0.00 0.00 93 1011.4
20260510033024 10 1 0.0 0.0 0.00 0.00 0.00 93 1011.1
20260510031518 10 1 0.0 0.0 0.00 0.00 0.00 93 1011.0
20260510030015 10 1 0.0 0.0 0.00 0.00 0.00 93 1010.9
20260510024516 11 1 0.0 0.0 0.00 0.00 0.00 92 1010.8
20260510023013 11 1 0.0 0.0 0.00 0.00 0.00 92 1011.0
20260510021527 11 1 0.0 0.0 0.00 0.00 0.00 92 1010.9
20260510020028 11 1 0.0 0.0 0.00 0.00 0.00 91 1010.9
20260510014529 11 1 0.0 0.0 0.00 0.00 0.00 91 1010.7
20260510013025 11 1 0.0 0.0 0.00 0.00 0.00 90 1010.5
20260510011525 12 1 0.0 0.0 0.00 0.00 0.00 90 1010.5
20260510010021 12 1 0.0 0.0 0.00 0.00 0.00 89 1010.5
20260510004515 12 1 0.0 0.0 0.00 0.00 0.00 88 1010.3
20260510003043 12 1 0.0 0.0 0.00 0.00 0.00 87 1010.3
20260510001528 13 1 0.0 0.0 0.00 0.00 0.00 85 1010.3
20260510000030 13 1 0.0 0.0 0.00 0.00 0.00 84 1010.3
20260509234536 13 1 0.0 0.0 0.00 0.00 0.00 82 1010.3
20260509233035 14 1 0.0 0.0 0.00 0.00 0.00 80 1010.2
20260509231528 15 1 0.0 0.0 0.00 0.00 0.00 79 1010.1
20260509230021 15 1 0.0 0.0 0.00 0.00 0.00 77 1009.9
20260509224518 15 1 0.0 1.6 0.00 0.00 0.00 80 1010.1
20260509223032 15 1 0.0 4.8 0.00 0.00 0.00 79 1010.1
20260509221529 15 357 0.0 3.2 0.00 0.00 0.00 80 1010.0
20260509220029 14 357 0.0 0.0 0.00 0.00 0.00 81 1010.2
20260509214528 14 53 0.0 3.2 0.00 0.00 0.00 81 1010.2
20260509213027 14 6 0.0 3.2 0.00 0.00 0.00 82 1010.4
20260509211523 14 359 0.0 1.6 0.00 0.00 0.00 81 1010.3
20260509210026 15 359 0.0 0.0 0.00 0.00 0.00 78 1010.3
20260509204520 15 359 1.6 3.2 0.00 0.00 0.00 76 1010.4
20260509203024 15 297 0.0 8.0 0.00 0.00 0.00 75 1010.2
20260509201518 15 346 0.0 6.4 0.00 0.00 0.00 76 1010.3
20260509200013 15 54 1.6 6.4 0.00 0.00 0.00 77 1010.0
20260509194527 15 259 1.6 8.0 0.00 0.00 0.00 77 1010.4
20260509193007 15 360 1.6 3.2 0.00 0.00 0.00 78 1010.4